EUTELSAT 5 WEST B

Last updated on Nov. 8, 2019, 12:02 a.m. UTC

1 44624U 19067A   19311.66455359  .00000009  00000-0  00000+0 0  9999
2 44624   0.0122 305.5272 0000789 205.5066 136.2953  1.00269181   253
UTC
Height (km)
Latitude
Longitude
Inclination
Orbital Period
UTC large
Height (km)
Speed (km/s)
/
Latitude / Longitude
Inclination (degrees)
Orbital Period (minutes)
Azimuth
Elevation
Range (km)
Doppler Factor
iOS Compass Heading
iOS Angle

Next 30 passes for location: Hong Kong

Rise time Rise Azimuth (degrees) Set time Set Azimuth (degrees) Duration Max altitude (degrees)

No matching passes for this satellites